Zurück zum Katalog

FENGYUN 1C DEB

AktivPO
NORAD 30804·DEBRIS·🇨🇳 China

Gestartet May 10, 1999 von Taiyuan Satellite Launch Center

Loading…

Nächste Überflüge (nächste 24 Stunden)

TLE

AktuellSource: Space-Track

Epoche: Sep 14, 2026, 04:51 UTC

1 30804U 99025AUN 26257.20259722  .00001082  00000-0  20867-3 0  9998
2 30804  98.8719 344.9542 0183903  74.4730 317.2089 14.55596493 34782

Verfolge FENGYUN 1C DEB in Echtzeit mit AllMySat

Download on the App Store